Location: Pour�
(13.2018°N, 4.9865°W)
Time: 23:22:28
(UTC+00:00)

Daily predictions for brighter satellites

Satellite Brightness Start Highest point End
(mag) Time Altitude Azimuth Time Altitude Azimuth Time Altitude Azimuth
Meteor 1-18 Rocket 4.3 18:07:59 10° S 18:13:46 70° E 18:19:26 10° NNE
STARLINK-70 4.3 18:10:32 10° SSW 18:14:14 36° ESE 18:17:57 10° NE
Feng Yun 1-1 Rocket 4.2 18:09:42 10° SSE 18:15:09 89° ENE 18:20:33 10° NNW
Cosmos 2026 Rocket 4.1 18:09:39 10° S 18:15:45 85° W 18:21:48 10° N
STARLINK-68 4.1 18:12:12 10° SSW 18:16:00 41° SE 18:19:48 10° NE
Centaur AC-64 3.5 18:14:46 10° WNW 18:17:21 34° N 18:24:34 10° ENE
STARLINK-58 4.1 18:13:46 10° SSW 18:17:34 41° ESE 18:21:21 10° NE
STARLINK-62 4.0 18:15:26 10° SSW 18:19:17 45° SE 18:23:08 10° NE
STARLINK-63 4.0 18:16:59 10° SSW 18:20:50 45° SE 18:24:41 10° NE
Centaur D-1AR AC-41 3.6 18:18:08 10° WNW 18:21:35 32° N 18:25:57 10° ENE
STARLINK-72 3.9 18:20:12 10° SSW 18:24:04 47° SE 18:27:55 10° NE
Ariane H10-3 3.5 18:22:03 10° SW 18:24:14 30° SSE 18:29:03 10° ESE
Lacrosse 5 2.2 18:20:12 10° SW 18:25:15 69° WNW 18:30:19 10° NNE
IUS-18 SRM-1 1.5 18:21:44 10° WNW 18:25:59 85° NNE 18:28:06 10° ESE
NOAA 12 4.1 18:21:53 10° SSE 18:27:10 72° ENE 18:32:26 10° N
STARLINK-59 3.7 18:23:31 10° SSW 18:27:27 56° SE 18:31:21 10° NE
Cosmos 1666 2.6 18:25:31 10° N 18:29:14 88° E 18:32:57 10° S
STARLINK-55 3.6 18:26:45 10° SSW 18:30:43 62° SE 18:34:30 11° NE
Cosmos 292 Rocket 4.1 18:26:11 10° N 18:30:45 42° ENE 18:35:17 10° SSE
Cosmos 1943 3.6 18:26:26 10° S 18:31:47 44° ESE 18:37:06 10° NNE
Cosmos 1536 4.0 18:28:23 10° NNW 18:32:11 45° W 18:35:58 10° SSW
STARLINK-28 3.6 18:28:26 10° SSW 18:32:24 67° SE 18:36:09 11° NE
Okean 3 3.6 18:29:30 10° SSE 18:33:34 49° E 18:37:36 10° NNE
Cosmos 921 Rocket 4.1 18:30:49 10° NNE 18:34:20 24° ENE 18:37:54 10° SE
STARLINK-53 3.5 18:31:42 10° SSW 18:35:41 74° SE 18:39:18 12° NE
Okean 1 4.4 18:31:56 10° SSW 18:35:47 47° W 18:39:38 10° N
Envisat 2.9 18:31:51 10° SSE 18:36:55 78° ENE 18:41:59 10° N
Cosmos 2221 Rocket 3.6 18:32:37 10° S 18:37:08 83° E 18:41:36 10° N
STARLINK-54 3.5 18:33:21 10° SSW 18:37:22 79° SE 18:40:56 13° NE
CZ-4 R/B 1.9 18:35:18 10° SE 18:38:55 34° ENE 18:42:28 10° NNE
FengYun 1-2 T 4.3 18:33:40 10° SSE 18:38:58 52° ENE 18:44:15 10° N
GPS 2-12 Rocket1 3.8 18:35:44 10° W 18:40:00 49° SSW 18:44:20 10° SE
SL-8 R/B 4.0 18:35:26 10° NW 18:40:14 71° SW 18:45:01 10° SSE
ARIANE 44L R/B 4.1 18:37:18 10° WSW 18:40:14 20° SSW 18:42:07 10° SE
STARLINK-34 3.5 18:36:39 10° SW 18:40:40 88° SE 18:44:07 14° NE
STARLINK-81 3.5 18:39:45 10° SSW 18:43:46 84° SE 18:46:57 16° NE
YAOGAN 6 2.4 18:41:50 10° SSE 18:45:17 68° E 18:48:47 10° N
STARLINK-24 3.6 18:41:35 10° SW 18:45:36 81° NW 18:48:52 15° NNE
SEDSat Delta rocket 4.1 18:40:02 10° WSW 18:46:44 87° NNW 18:51:57 18° ENE
STARLINK-77 3.5 18:43:04 10° SW 18:47:05 88° NW 18:50:10 17° NE
ADEOS Rocket 3.7 18:44:49 14° NE 18:48:33 28° ESE 18:53:28 10° SSE
STARLINK-25 3.5 18:44:43 10° SW 18:48:43 83° WNW 18:51:44 17° NNE
Cosmos 1782 Rocket 3.4 18:44:29 10° N 18:48:48 77° E 18:53:07 10° S
Cosmos 2278 Rocket 3.1 18:44:29 10° NNW 18:49:57 54° WSW 18:55:26 10° S
ATLAS 3B CENTAUR R/B 3.4 18:44:37 10° SW 18:50:15 59° SE 18:59:46 19° ENE
STARLINK-71 3.8 18:46:34 10° SW 18:50:33 67° NW 18:53:40 16° NNE
Cosmos 1850 Rocket 4.1 18:46:13 10° S 18:51:16 53° E 18:55:52 13° NNE
STARLINK-79 3.6 18:48:04 10° SW 18:52:05 75° NW 18:54:58 18° NNE
USA 267 3.9 18:47:19 10° ESE 18:52:58 32° NE 18:58:37 10° NNW
STARLINK-78 3.7 18:49:42 10° SW 18:53:41 70° NW 18:56:33 18° NNE
Cosmos 1655 Rocket 4.0 18:48:03 10° S 18:54:25 89° W 19:00:44 10° N
Cosmos 1603 4.0 18:49:08 10° SSW 18:54:46 71° WNW 19:00:27 10° N
Okean 2 Rocket 3.8 18:50:56 10° NNE 18:54:55 31° E 18:58:54 10° SSE
Sich 1 Rocket 3.5 18:50:51 10° N 18:55:11 64° E 18:59:32 10° SSE
STARLINK-57 3.9 18:51:28 10° SW 18:55:26 62° NW 18:58:18 18° NNE
STARLINK-49 3.9 18:53:00 10° SW 18:56:59 63° NW 18:59:42 19° NNE
Cosmos 1743 2.6 18:54:17 10° N 18:58:09 77° E 19:02:02 10° S
STARLINK-27 3.9 18:54:41 10° SW 18:58:39 60° NW 19:01:19 20° NNE
STARLINK-74 4.0 18:56:21 10° SW 19:00:18 57° NW 19:02:54 20° NNE
STARLINK-39 4.1 18:58:01 10° SW 19:01:57 53° NW 19:04:29 20° NNE
STARLINK 4.2 18:59:44 10° SW 19:03:38 50° NW 19:06:07 20° NNE
STARLINK-42 4.5 19:01:32 10° SW 19:05:22 44° NW 19:07:52 19° NNE
ATLAS 5 CENTAUR R/B 2.0 19:01:57 10° WNW 19:05:37 83° SSW 19:19:17 10° ESE
Aureole 3 Rocket 3.8 19:07:14 27° ESE 19:07:14 27° ESE 19:09:51 10° SSE
GEOS 3 Rocket 4.2 19:04:15 27° ENE 19:06:32 40° ESE 19:11:28 10° S
STARLINK-21 4.4 19:03:04 10° SW 19:06:55 45° NW 19:09:17 21° N
Meteor 2-4 Rocket 3.9 19:02:05 10° S 19:08:00 78° W 19:13:54 10° N
Okean-O 4.5 19:04:03 10° SSW 19:08:01 32° W 19:11:58 10° NW
Geosat 3.9 19:05:58 15° NNE 19:10:08 88° WNW 19:15:09 10° SSW
Cosmos 1461 3.1 19:07:51 10° SSW 19:11:47 62° WNW 19:13:55 25° N
GPS 2-18 Rocket1 3.1 19:13:28 10° WNW 19:17:22 77° SSW 19:18:13 51° SE
Cosmos 1674 Rocket 3.5 19:13:06 10° S 19:17:34 89° E 19:20:26 22° N
NOSS 2-1 (C) 3.1 19:14:51 10° SSW 19:19:12 83° ESE 19:19:51 59° NE
NOSS 2-1 (D) 3.1 19:18:29 10° SSW 19:22:48 85° WNW 19:23:24 62° NNE
Cosmos 1975 2.9 19:20:08 10° N 19:24:07 77° W 19:28:08 10° S
YAOGAN 1 2.8 19:20:12 10° S 19:24:29 68° WSW 19:28:46 10° NNW
SWIFT 3.5 19:22:03 10° WNW 19:25:25 30° N 19:25:25 30° N
CSL-04 Rocket 3.6 19:20:57 10° S 19:26:14 83° WSW 19:31:30 10° NNW
Meteor 1-12 Rocket 4.4 19:29:20 48° ENE 19:29:32 48° E 19:34:57 10° SSE
CZ-3B R/B 2.9 19:24:34 10° WNW 19:29:35 39° N 19:32:07 31° NNE
Star 63D 3.8 19:26:07 10° WNW 19:29:53 59° SSW 19:29:53 59° SSW
OAO 1 Rocket 4.4 19:26:38 10° NW 19:31:51 59° NNE 19:32:06 58° NE
Cosmos 1939 Rocket 2.8 19:30:02 10° S 19:34:07 85° WSW 19:34:31 72° NNW
Ariane H10 2.8 19:32:03 10° WSW 19:35:10 39° S 19:35:27 38° SSE
CZ-4C R/B 4.1 19:32:44 10° WSW 19:36:00 19° WNW 19:39:29 10° NNW
Cosmos 1378 Rocket 3.5 19:31:50 10° S 19:36:06 77° W 19:36:46 61° NNW
GOES 2 Rocket 4.5 19:28:57 10° WNW 19:37:34 70° SSW 19:41:27 27° SE
Meteosat 1 Rocket2 4.3 19:33:32 10° WSW 19:43:31 74° SSE 19:45:15 54° E
GPS 2-14 Rocket1 3.8 19:40:57 10° W 19:43:39 38° WNW 19:43:39 38° WNW
Cosmos 1300 Rocket 4.2 19:46:00 47° S 19:46:00 47° S 19:49:07 10° S
Atlas Centaur 2 3.2 19:38:19 10° WNW 19:46:28 74° SSW 19:51:33 27° SE
S3M 4.4 19:48:36 10° NNW 19:54:35 58° W 20:00:32 10° S
Cosmos 2297 4.4 19:49:46 10° NNW 19:55:12 51° WSW 20:00:37 10° S
Delta 2 Rocket 4.3 19:47:58 10° WSW 19:57:01 83° SSE 19:58:19 66° E
H-2A ROCKET BODY 3.6 20:11:46 10° WSW 20:15:51 26° W 20:15:51 26° W
USA 267 4.2 20:29:37 10° SSE 20:35:42 42° SW 20:41:48 10° WNW
ATLAS 3B CENTAUR R/B 4.5 21:08:47 10° W 21:16:58 57° NW 21:16:58 57° NW
